EW0734 Weather Reports


time (UTC)temp
C
wind
direction
speed
KPH
gust
KPH
rain 1hr
cm
rain 24hr
cm
rain mn
cm
humidity
%
barometer
mb
20260506044545 21 90 3.2 17.7 0.00 0.00 0.00 58 1009.7
20260506043526 21 0.0 3.2 0.00 0.00 0.00 58 1009.7
20260506042525 21 0.0 3.2 0.00 0.00 0.00 57 1009.6
20260506041525 22 68 1.6 9.7 0.00 0.00 0.00 56 1009.7
20260506040556 22 90 1.6 12.9 0.00 0.00 0.00 56 1009.8
20260506035525 22 90 1.6 8.0 0.00 0.00 0.00 56 1009.8
20260506034525 22 158 1.6 4.8 0.00 0.00 0.00 55 1009.7
20260506033525 21 0.0 4.8 0.00 0.00 0.00 55 1009.6
20260506032525 21 0.0 3.2 0.00 0.00 0.00 55 1009.6
20260506031525 21 0.0 6.4 0.00 0.00 0.00 55 1009.8
20260506030525 21 180 1.6 11.3 0.00 0.00 0.00 55 1009.7
20260506025525 21 0.0 6.4 0.00 0.00 0.00 55 1009.8
20260506024525 21 180 1.6 8.0 0.00 0.00 0.00 54 1009.8
20260506023525 21 0.0 3.2 0.00 0.00 0.00 53 1010.0
20260506022525 22 0.0 3.2 0.00 0.00 0.00 53 1010.0
20260506021525 22 0.0 1.6 0.00 0.00 0.00 52 1010.0
20260506020527 22 0.0 6.4 0.00 0.00 0.00 51 1010.0
20260506015526 22 0.0 0.0 0.00 0.00 0.00 51 1010.0
20260506014525 22 0.0 0.0 0.00 0.00 0.00 49 1009.8
20260506013526 22 0.0 3.2 0.00 0.00 0.00 48 1009.8
20260506012525 23 0.0 0.0 0.00 0.00 0.00 46 1009.7
20260506011525 23 0.0 6.4 0.00 0.00 0.00 45 1009.5
20260506010546 23 0.0 8.0 0.00 0.00 0.00 44 1009.4
20260506005526 23 0.0 6.4 0.00 0.00 0.00 44 1009.4
20260506004526 23 0.0 4.8 0.00 0.00 0.00 43 1009.1
20260506003524 24 0.0 4.8 0.00 0.00 0.00 42 1009.1
20260506002526 24 0.0 3.2 0.00 0.00 0.00 42 1009.0
20260506001545 25 0.0 6.4 0.00 0.00 0.00 40 1008.9
20260506000545 25 0.0 4.8 0.00 0.00 0.00 40 1008.8
20260505235526 25 0.0 3.2 0.00 0.00 0.00 39 1008.7
20260505234525 25 0.0 6.4 0.00 0.00 0.00 38 1008.7
20260505233525 25 0.0 1.6 0.00 0.00 0.00 37 1008.6
20260505232525 26 0.0 1.6 0.00 0.00 0.00 36 1008.7
20260505231525 26 315 1.6 8.0 0.00 0.00 0.00 35 1008.6
20260505230525 26 0.0 4.8 0.00 0.00 0.00 35 1008.6
20260505225525 26 270 1.6 9.7 0.00 0.00 0.00 33 1008.6
20260505224525 27 225 1.6 8.0 0.00 0.00 0.00 32 1008.7
20260505223544 27 293 1.6 12.9 0.00 0.00 0.00 32 1008.6
20260505222525 27 315 1.6 9.7 0.00 0.00 0.00 31 1008.4
20260505221545 27 248 1.6 8.0 0.00 0.00 0.00 33 1008.4
20260505220525 27 203 1.6 9.7 0.00 0.00 0.00 32 1008.3
20260505215525 27 0.0 3.2 0.00 0.00 0.00 32 1008.4
20260505214524 27 203 1.6 9.7 0.00 0.00 0.00 31 1008.5
20260505213545 27 270 1.6 12.9 0.00 0.00 0.00 30 1008.4
20260505212524 28 203 1.6 6.4 0.00 0.00 0.00 28 1008.2
20260505211524 28 270 3.2 12.9 0.00 0.00 0.00 30 1008.1
20260505210524 28 68 1.6 9.7 0.00 0.00 0.00 30 1008.3
20260505205524 28 90 1.6 4.8 0.00 0.00 0.00 29 1008.2
20260505204525 28 90 3.2 14.5 0.00 0.00 0.00 29 1008.4
20260505203526 28 68 3.2 17.7 0.00 0.00 0.00 28 1008.3
20260505202525 29 203 3.2 8.0 0.00 0.00 0.00 29 1008.3
20260505201524 29 270 3.2 8.0 0.00 0.00 0.00 28 1008.3
20260505200525 29 203 3.2 14.5 0.00 0.00 0.00 29 1008.4
20260505195525 30 68 3.2 17.7 0.00 0.00 0.00 29 1008.6
20260505194525 30 90 1.6 12.9 0.00 0.00 0.00 28 1008.5
20260505193524 30 90 1.6 9.7 0.00 0.00 0.00 30 1008.7
20260505192545 30 135 3.2 19.3 0.00 0.00 0.00 29 1008.9
20260505191524 30 90 1.6 11.3 0.00 0.00 0.00 30 1009.0
20260505190524 30 90 3.2 14.5 0.00 0.00 0.00 28 1009.3
20260505185524 30 90 1.6 6.4 0.00 0.00 0.00 33 1009.4
20260505184525 30 90 3.2 16.1 0.00 0.00 0.00 30 1009.7
20260505183524 30 158 1.6 14.5 0.00 0.00 0.00 31 1009.7
20260505182524 30 203 1.6 9.7 0.00 0.00 0.00 31 1009.7
20260505181524 30 270 1.6 9.7 0.00 0.00 0.00 31 1009.8
20260505180530 30 0.0 4.8 0.00 0.00 0.00 35 1009.9
20260505175524 29 203 1.6 12.9 0.00 0.00 0.00 34 1010.2
20260505174524 29 90 1.6 6.4 0.00 0.00 0.00 36 1010.1
20260505173524 29 68 3.2 11.3 0.00 0.00 0.00 33 1010.2
20260505172545 29 90 1.6 11.3 0.00 0.00 0.00 33 1010.3
20260505171525 29 180 1.6 11.3 0.00 0.00 0.00 33 1010.4
20260505170544 29 90 1.6 6.4 0.00 0.00 0.00 35 1010.3
20260505165524 28 113 1.6 9.7 0.00 0.00 0.00 35 1010.7
20260505164526 28 113 1.6 6.4 0.00 0.00 0.00 36 1010.9
20260505163525 28 90 1.6 8.0 0.00 0.00 0.00 37 1010.9
20260505162524 28 180 3.2 11.3 0.00 0.00 0.00 38 1011.2
20260505161525 28 203 1.6 4.8 0.00 0.00 0.00 41 1011.3
20260505160524 27 180 1.6 6.4 0.00 0.00 0.00 40 1011.5
20260505152524 27 158 1.6 8.0 0.00 0.00 0.00 44 1011.6
20260505151524 26 0.0 4.8 0.00 0.00 0.00 46 1011.8
20260505150524 26 90 1.6 4.8 0.00 0.00 0.00 44 1011.8
20260505140526 23 90 1.6 3.2 0.00 0.00 0.00 50 1011.7
20260505124524 17 0.0 3.2 0.00 0.00 0.00 65 1012.1
20260505123525 17 0.0 3.2 0.00 0.00 0.00 66 1012.1
20260505122527 16 0.0 8.0 0.00 0.00 0.00 67 1012.1
20260505121526 16 0.0 3.2 0.00 0.00 0.00 68 1012.0
20260505120525 16 0.0 4.8 0.00 0.00 0.00 69 1011.9
20260505115544 15 0.0 1.6 0.00 0.00 0.00 71 1011.8
20260505114524 15 0.0 1.6 0.00 0.00 0.00 73 1011.7
20260505113526 14 0.0 0.0 0.00 0.00 0.00 76 1011.6
20260505112525 13 0.0 0.0 0.00 0.00 0.00 77 1011.6
20260505111526 13 0.0 0.0 0.00 0.00 0.00 77 1011.5
20260505110526 13 0.0 0.0 0.00 0.00 0.00 76 1011.4
20260505102026 -17 0.0 0.0 0.00 0.00 0.00
20260505101545 -17 0.0 0.0 0.00 0.00 0.00
20260505101023 -17 0.0 0.0 0.00 0.00 0.00
20260505100544 -17 0.0 0.0 0.00 0.00 0.00
20260505095525 -17 0.0 0.0 0.00 0.00 0.00
20260505095042 -17 0.0 0.0 0.00 0.00 0.00
20260505094521 -17 0.0 0.0 0.00 0.00 0.00
20260505094024 -17 0.0 0.0 0.00 0.00 0.00
20260505093024 -17 0.0 0.0 0.00 0.00 0.00
20260505092543 -17 0.0 0.0 0.00 0.00 0.00
20260505092022 -17 0.0 0.0 0.00 0.00 0.00
20260505091525 -17 0.0 0.0 0.00 0.00 0.00
20260505090524 -17 0.0 0.0 0.00 0.00 0.00
20260505090043 -17 0.0 0.0 0.00 0.00 0.00
20260505085520 -17 0.0 0.0 0.00 0.00 0.00
20260505085025 -17 0.0 0.0 0.00 0.00 0.00
20260505084024 -17 0.0 0.0 0.00 0.00 0.00
20260505083531 -17 0.0 0.0 0.00 0.00 0.00 71
20260505083148 13 0.0 0.0 0.00 0.00 0.00 71 1010.6
20260505082025 13 0.0 0.0 0.00 0.00 0.00 71 1010.6
20260505081025 13 0.0 1.6 0.00 0.00 0.00 72 1010.6
20260505080026 13 0.0 0.0 0.00 0.00 0.00 72 1010.5
20260505075025 13 0.0 0.0 0.00 0.00 0.00 72 1010.5
20260505074045 13 0.0 0.0 0.00 0.00 0.00 72 1010.5
20260505073025 13 0.0 0.0 0.00 0.00 0.00 72 1010.6
20260505072025 13 0.0 1.6 0.00 0.00 0.00 72 1010.5
20260505071025 13 0.0 0.0 0.00 0.00 0.00 72 1010.4
20260505070025 14 0.0 0.0 0.00 0.00 0.00 71 1010.3
20260505065026 14 0.0 1.6 0.00 0.00 0.00 70 1010.2
20260505064030 14 0.0 1.6 0.00 0.00 0.00 70 1010.1
20260505063046 14 0.0 1.6 0.00 0.00 0.00 69 1010.2
20260505062045 14 0.0 0.0 0.00 0.00 0.00 70 1010.1
20260505061026 14 0.0 0.0 0.00 0.00 0.00 70 1010.2
20260505060024 15 0.0 0.0 0.00 0.00 0.00 70 1010.1
20260505055025 15 0.0 1.6 0.00 0.00 0.00 69 1010.0
20260505054026 15 0.0 1.6 0.00 0.00 0.00 68 1009.9
20260505053025 15 0.0 1.6 0.00 0.00 0.00 68 1009.8
20260505052026 15 0.0 0.0 0.00 0.00 0.00 69 1009.8
20260505051025 15 0.0 1.6 0.00 0.00 0.00 69 1009.8